This is the latest recevied weather packets stored in our database for station/object AD8IZ-13. If no packets are shown the sender has not sent any weather packets the latest 10 day(s).
| Time | Temp. | Humidity | Pressure | Rain* | Wind** | Luminosity | Snow |
|---|---|---|---|---|---|---|---|
| 1777299918 | 16.11° C | 76% | 1018.9 hPa | 0 mm | - | 651 W/m² | - |
| 1777299318 | 15.56° C | 78% | 1019 hPa | 0 mm | - | 577 W/m² | - |
| 1777298719 | 15° C | 79% | 1019.1 hPa | 0 mm | - | 266 W/m² | - |
| 1777298123 | 14.44° C | 80% | 1019.2 hPa | 0 mm | - | 95 W/m² | - |
| 1777296919 | 13.89° C | 81% | 1019.4 hPa | 0 mm | - | 85 W/m² | - |
| 1777295727 | 13.33° C | 82% | 1019.5 hPa | 0 mm | - | 79 W/m² | - |
| 1777295126 | 12.78° C | 83% | 1019.3 hPa | 0 mm | - | 88 W/m² | - |
| 1777294525 | 11.67° C | 85% | 1019.2 hPa | 0 mm | - | 92 W/m² | - |
| 1777293320 | 11.11° C | 85% | 1019.3 hPa | 0 mm | - | 90 W/m² | - |
| 1777292726 | 11.11° C | 86% | 1019.5 hPa | 0 mm | - | 92 W/m² | - |
| 1777292126 | 10.56° C | 87% | 1019.4 hPa | 0 mm | - | 81 W/m² | - |
| 1777291526 | 10.56° C | 87% | 1019.2 hPa | 0 mm | - | 72 W/m² | - |
| 1777289718 | 10° C | 87% | 1019.1 hPa | 0 mm | - | 56 W/m² | - |
| 1777289118 | 9.44° C | 88% | 1019.2 hPa | 0 mm | - | 52 W/m² | - |
| 1777288519 | 9.44° C | 88% | 1019.2 hPa | 0 mm | - | 34 W/m² | - |
| 1777287919 | 9.44° C | 88% | 1019.3 hPa | 0 mm | - | 23 W/m² | - |
| 1777287319 | 8.89° C | 89% | 1019.3 hPa | 0 mm | - | 14 W/m² | - |
| 1777286119 | 8.89° C | 89% | 1019.2 hPa | 0 mm | - | 3 W/m² | - |
| 1777285523 | 8.89° C | 89% | 1019.3 hPa | 0 mm | - | 1 W/m² | - |
| 1777284920 | 8.89° C | 89% | 1019.3 hPa | 0 mm | - | 0 W/m² | - |
| 1777284320 | 8.89° C | 89% | 1019.3 hPa | 0 mm | - | 0 W/m² | - |
| 1777283121 | 8.89° C | 89% | 1019.2 hPa | 0 mm | - | 0 W/m² | - |
| 1777281921 | 8.89° C | 89% | 1019.2 hPa | 0 mm | - | 0 W/m² | - |
| 1777281321 | 9.44° C | 88% | 1019.2 hPa | 0 mm | - | 0 W/m² | - |
| 1777280718 | 9.44° C | 88% | 1019 hPa | 0 mm | - | 0 W/m² | - |
* Rain latest hour (hover to see other rain measurements)
** Current wind speed in m/s (hover to see current wind gust speed)